INTELSAT 10 (IS-10)

Last updated on Thu Oct 30 2025 00:02:47 GMT+0000 (Coordinated Universal Time)

1 26766U 01019A 25302.17978316 -.00000232 00000+0 00000+0 0 9998 2 26766 8.5191 61.5958 0005779 202.1150 169.3356 0.99078949 43292
UTC large
Height (km)
Speed (km/s)
/
Latitude / Longitude
Inclination (degrees)
Orbital Period (minutes)
Azimuth
Elevation
Range (km)
Doppler Factor

Next 0 passes for location: London (51.5072 / 0.1276)

Sorry there are no passes over London.